Regional Weather Roundup
Issued by NWS

Home | Current Version | Previous Version | Graphics & Text | Print | Product List | Glossary On
Versions: 1 2 3 4 5 6 7 8 9 10 11 12 13 14 15 16 17 18 19 20 21 22 23 24 25 26 27 28 29 30 31 32 33 34 35 36 37 38 39 40 41 42 43 44 45 46 47 48 49 50
000
ASUS45 KSLC 040410
RWRUT

UTAH REGIONAL WEATHER ROUNDUP
NATIONAL WEATHER SERVICE SALT LAKE CITY UT
1000 PM MDT SUN MAY 03 2015

UTZ001>011-023>025-040500-

NORTHERN UTAH

CITY           SKY/WX    TMP DP  RH WIND       PRES   REMARKS
BRIGHAM CITY   CLOUDY    62  41  45 CALM      29.89R
HILL AFB       CLOUDY    65  39  39 SE10      29.90R
LOGAN          CLEAR     59  45  59 S3        29.91R
OGDEN          CLOUDY    66  41  40 CALM      29.87R
PROVO AIRPORT  CLOUDY    66  39  37 NW10G22   29.93R
SALT LAKE CITY MOCLDY    66  45  46 N8        29.86R
VERNAL         MOCLDY    57  39  51 CALM      29.99R
WENDOVER       MOCLDY    66  34  30 CALM      29.90R
HEBER CITY     CLOUDY    59  37  44 E3        29.99R
WEST JORDAN    MOCLDY    64  43  45 E6        29.91R

$$

UTZ012>022-026-027-040500-

SOUTHERN/CENTRAL UTAH

CITY           SKY/WX    TMP DP  RH WIND       PRES   REMARKS
BLANDING       CLOUDY    55  40  56 NW9       30.10R
BRYCE CANYON   CLOUDY    45  37  73 N5        30.10R
CEDAR CITY     CLOUDY    59  35  40 CALM      30.00R
DELTA          CLOUDY    65  32  28 W14       29.93R
HANKSVILLE     PTCLDY    59  28  31 CALM      29.92R
MILFORD        CLOUDY    62  37  39 S17G28    29.93R
MOAB/CYNLANDS  PTCLDY    64  36  35 NE10      29.91R
PRICE          PTCLDY    59  30  33 SE3       29.98R
ST GEORGE      CLOUDY    70  39  32 SE12G22   29.88R
KANAB          CLOUDY    55  41  58 W5        30.00F

$$

REGIONAL REPORTS     COLORADO/ARIZONA

CITY           SKY/WX    TMP DP  RH WIND       PRES   REMARKS
CRAIG, CO      LGT RAIN  54  40  59 S6        30.08R
GRAND JUNCTION CLOUDY    59  42  53 SE5       30.00R
RIFLE          CLOUDY    58  40  51 W9        30.06R
MONTROSE       CLOUDY    54  39  57 SE5       30.08R
CORTEZ         CLEAR     53  38  56 CALM      30.04R
PAGE, AZ       MOCLDY    66  39  37 NW6       29.94R
GRAND CANYON   CLOUDY    47  39  74 CALM      30.06S
KINGMAN        PTCLDY    67  36  31 S10       29.86R
FLAGSTAFF      PTCLDY    47  36  65 CALM      30.09R

$$

REGIONAL REPORTS    NEVADA/IDAHO/WYOMING

CITY           SKY/WX    TMP DP  RH WIND       PRES   REMARKS
LAS VEGAS, NV  PTCLDY    82  26  13 SW10      29.71R
ELY            CLOUDY    62  27  26 NW6       29.98R
ELKO           CLOUDY    62  34  35 CALM      29.91R
POCATELLO, ID  CLEAR     57  41  55 E10       29.91R
BURLEY         CLOUDY    62  40  44 S15       29.87R
EVANSTON, WY   PTCLDY    47  39  74 E15       30.06R
ROCK SPRINGS   CLOUDY    46  37  71 NW8       30.09R
KEMMERER       MOCLDY    43  41  93 NE6       30.09R

$$



USA.gov is the U.S. government's official web portal to all federal, state and local government web resources and services.